This is the latest recevied weather packets stored in our database for station/object F5IOR-13. If no packets are shown the sender has not sent any weather packets the latest 10 day(s).
| Time | Temp. | Humidity | Pressure | Rain* | Wind** | Luminosity | Snow |
|---|---|---|---|---|---|---|---|
| 1777828107 | 18.33° C | 53% | 984.2 hPa | 3.56 mm | - | - | - |
| 1777826307 | 18.89° C | 57% | 984.2 hPa | 3.56 mm | - | - | - |
| 1777824507 | 18.89° C | 58% | 984.4 hPa | 3.56 mm | - | - | - |
| 1777822707 | 18.89° C | 60% | 984.6 hPa | 3.56 mm | - | - | - |
| 1777820907 | 18.33° C | 62% | 984.9 hPa | 3.56 mm | - | - | - |
| 1777819107 | 17.22° C | 66% | 985.2 hPa | 3.56 mm | - | - | - |
| 1777817307 | 16.67° C | 68% | 985.6 hPa | 3.56 mm | - | - | - |
| 1777815507 | 17.78° C | 69% | 986.2 hPa | 3.05 mm | - | - | - |
| 1777813707 | 17.78° C | 71% | 986.6 hPa | 3.05 mm | - | - | - |
| 1777811907 | 17.22° C | 70% | 986.8 hPa | 3.05 mm | - | - | - |
| 1777810107 | 16.67° C | 71% | 987.3 hPa | 3.05 mm | - | - | - |
| 1777808307 | 16.67° C | 73% | 987.4 hPa | 3.05 mm | - | - | - |
| 1777806507 | 15.56° C | 72% | 987.5 hPa | 3.05 mm | - | - | - |
| 1777804707 | 16.11° C | 69% | 987.5 hPa | 3.05 mm | - | - | - |
| 1777802907 | 14.44° C | 75% | 987.4 hPa | 4.32 mm | - | - | - |
| 1777801107 | 14.44° C | 73% | 987.4 hPa | 4.32 mm | - | - | - |
| 1777800147 | 15° C | 68% | 987.2 hPa | 4.32 mm | - | - | - |
| 1777799187 | 15° C | 67% | 987.1 hPa | 4.32 mm | - | - | - |
| 1777798227 | 15° C | 65% | 986.9 hPa | 4.32 mm | - | - | - |
| 1777797267 | 15° C | 61% | 986.5 hPa | 4.32 mm | - | - | - |
| 1777796787 | 15° C | 61% | 986.5 hPa | 4.32 mm | - | - | - |
| 1777796307 | 15° C | 61% | 986.5 hPa | 4.32 mm | - | - | - |
| 1777795827 | 15° C | 60% | 986.5 hPa | 4.32 mm | - | - | - |
| 1777795347 | 15° C | 60% | 986.5 hPa | 4.32 mm | - | - | - |
| 1777795107 | 15° C | 58% | 986.4 hPa | 4.32 mm | - | - | - |
* Rain latest hour (hover to see other rain measurements)
** Current wind speed in m/s (hover to see current wind gust speed)